Вернуться в каталог

STARLINK-30344

АктивенСвязьVLEO
NORAD 57737·PAYLOAD·🇺🇸 United States

Запущен Sep 1, 2023 с Cape Canaveral Space Force Station

Loading…

Ближайшие Пролёты (ближайшие 24 часа)

TLE

СвежийSource: CelesTrak SupGP

Эпоха: Sep 15, 2026, 02:05 UTC

1 57737C 23131F   26258.08729167 -.00010129  00000+0 -36684-3 0  2584
2 57737  43.0004 212.2077 0001401 264.7510 243.9404 15.27585495    12

Отслеживайте STARLINK-30344 в реальном времени с AllMySat

Download on the App Store